Lancaster, PA

2:27 PM EDT on May 24, 2017 (GMT -0400)
Lancaster

Weather History for KLNS - November, 2010

Change the Weather History Date:

Sunday, November 28, 2010

  Actual Average Record
Temperature  
Mean Temperature 36 °F -  
Max Temperature 45 °F 52 °F 69 °F (1990)
Min Temperature 27 °F 34 °F 17 °F (1982)
Degree Days  
Heating Degree Days 29    
Moisture  
Dew Point 25 °F    
Average Humidity 68    
Maximum Humidity 85    
Minimum Humidity 46    
Precipitation  
Precipitation 0.00 in - - ()
Sea Level Pressure  
Sea Level Pressure 30.34 in    
Wind  
Wind Speed 5 mph (West)    
Max Wind Speed 8 mph    
Max Gust Speed -    
Visibility 10 miles    
Events      
Averages and records for this station are not official NWS values.
T = Trace of Precipitation, MM = Missing Value Source: NWS Daily Summary

Daily Weather History Graph

Daily Weather History Graph

Search for Another Location

Airport or City:

Trip Planner

Search our weather history database for the weather conditions in past years. The results will help you decide how hot, cold, wet, or windy it might be!

Date:

Astronomy

Nov. 28, 2010 Rise Set
Actual Time 7:05 AM EST 4:41 PM EST
Civil Twilight 6:35 AM EST 5:10 PM EST
Nautical Twilight 6:01 AM EST 5:44 PM EST
Astronomical Twilight 5:29 AM EST 6:17 PM EST
Moon No Moon Rise 12:12 PM EST (11/28)
Length of Visible Light 10h 35m
Length of Day
9h 36m
Waning Gibbous, 52% of the Moon is Illuminated
Nov 28
Waning Gibbous
Nov 28
Last Quarter
Dec 5
New
Dec 13
First Quarter
Dec 21
Full

Hourly Weather History & Observations

Time (EST) Temp. Windchill Dew Point Humidity Pressure Visibility Wind Dir Wind Speed Gust Speed Precip Events Conditions
12:53 AM 34.0 °F 28.8 °F 25.0 °F 70% 30.15 in 10.0 mi West 5.8 mph - N/A   Overcast
1:53 AM 32.0 °F 28.7 °F 24.1 °F 73% 30.17 in 10.0 mi WSW 3.5 mph - N/A   Clear
2:53 AM 30.0 °F 22.4 °F 24.1 °F 79% 30.20 in 10.0 mi WNW 8.1 mph - N/A   Clear
3:53 AM 28.9 °F 22.8 °F 23.0 °F 78% 30.24 in 10.0 mi West 5.8 mph - N/A   Clear
4:53 AM 30.0 °F 26.5 °F 23.0 °F 75% 30.26 in 10.0 mi West 3.5 mph - N/A   Clear
5:53 AM 28.0 °F 22.8 °F 21.9 °F 78% 30.28 in 10.0 mi West 4.6 mph - N/A   Clear
6:53 AM 27.0 °F 19.5 °F 21.9 °F 81% 30.31 in 10.0 mi WNW 6.9 mph - N/A   Clear
7:53 AM 28.0 °F 24.2 °F 23.0 °F 81% 30.33 in 10.0 mi WNW 3.5 mph - N/A   Clear
8:53 AM 34.0 °F 31.0 °F 26.1 °F 73% 30.36 in 10.0 mi West 3.5 mph - N/A   Clear
9:53 AM 39.0 °F 34.8 °F 26.1 °F 60% 30.36 in 10.0 mi WNW 5.8 mph - N/A   Clear
10:53 AM 41.0 °F 37.1 °F 27.0 °F 57% 30.36 in 10.0 mi West 5.8 mph - N/A   Clear
11:53 AM 43.0 °F 38.8 °F 27.0 °F 53% 30.37 in 10.0 mi West 6.9 mph - N/A   Clear
12:53 PM 44.1 °F 40.1 °F 27.0 °F 51% 30.36 in 10.0 mi WNW 6.9 mph - N/A   Clear
1:53 PM 45.0 °F 42.6 °F 25.0 °F 46% 30.35 in 10.0 mi West 4.6 mph - N/A   Scattered Clouds
2:53 PM 44.1 °F 42.5 °F 25.0 °F 47% 30.36 in 10.0 mi WSW 3.5 mph - N/A   Clear
3:53 PM 43.0 °F 41.3 °F 25.0 °F 49% 30.37 in 10.0 mi WSW 3.5 mph - N/A   Clear
4:53 PM 41.0 °F 39.0 °F 25.0 °F 53% 30.38 in 10.0 mi SW 3.5 mph - N/A   Clear
5:53 PM 37.0 °F - 25.0 °F 62% 30.40 in 10.0 mi Calm Calm - N/A   Clear
6:53 PM 33.1 °F - 25.0 °F 72% 30.41 in 10.0 mi Calm Calm - N/A   Clear
7:53 PM 33.1 °F - 25.0 °F 72% 30.41 in 10.0 mi Calm Calm - N/A   Clear
8:53 PM 30.0 °F 26.5 °F 25.0 °F 82% 30.43 in 10.0 mi East 3.5 mph - N/A   Clear
9:53 PM 28.0 °F 24.2 °F 23.0 °F 81% 30.43 in 10.0 mi East 3.5 mph - N/A   Clear
10:53 PM 30.9 °F - 25.0 °F 79% 30.45 in 10.0 mi Calm Calm - N/A   Clear
11:53 PM 28.0 °F - 24.1 °F 85% 30.46 in 8.0 mi Calm Calm - N/A   Clear